DW5222 Weather Reports


time (UTC)temp
C
wind
direction
speed
KPH
gust
KPH
rain 1hr
cm
rain 24hr
cm
rain mn
cm
humidity
%
barometer
mb
20210618214332 21 105 0.0 0.0 0.00 0.00 0.00 74 1014.4
20210618213855 21 105 0.0 0.0 0.00 0.00 0.00 74 1014.3
20210618210840 22 105 0.0 0.0 0.00 0.00 0.00 70 1014.6
20210618210349 22 105 0.0 0.0 0.00 0.00 0.00 69 1014.5
20210618202837 23 105 0.0 0.0 0.00 0.00 0.00 64 1014.5
20210618201832 24 105 0.0 0.0 0.00 0.00 0.00 62 1014.5
20210618200340 25 105 0.0 0.0 0.00 0.00 0.00 59 1014.5
20210618193434 26 105 0.0 0.0 0.00 0.00 0.00 56 1014.2
20210618184248 30 105 0.0 0.0 0.00 0.00 0.00 40 1013.4
20210618181334 30 105 0.0 0.0 0.00 0.00 0.00 41 1013.4
20210618175004 30 105 0.0 1.6 0.00 0.00 0.00 36 1013.4
20210618172845 30 105 0.0 0.0 0.00 0.00 0.00 38 1013.6
20210618155851 31 355 0.0 0.0 0.00 0.00 0.00 34 1013.2
20210618151938 31 115 0.0 0.0 0.00 0.00 0.00 34 1013.4
20210618151904 31 15 0.0 1.6 0.00 0.00 0.00 34 1013.3
20210618142329 31 351 0.0 1.6 0.00 0.00 0.00 33 1013.6
20210618140427 31 59 0.0 1.6 0.00 0.00 0.00 35 1013.9
20210618134833 31 26 0.0 0.0 0.00 0.00 0.00 36 1013.8
20210618131324 31 18 0.0 0.0 0.00 0.00 0.00 36 1014.1
20210618123325 30 0 0.0 0.0 0.00 0.00 0.00 35 1014.2
20210618122336 30 232 0.0 0.0 0.00 0.00 0.00 37 1014.2
20210618120410 29 317 0.0 0.0 0.00 0.00 0.00 41 1014.3
20210618120320 29 317 0.0 0.0 0.00 0.00 0.00 41 1014.3
20210618114409 29 122 0.0 1.6 0.00 0.00 0.00 42 1014.3
20210618114332 29 122 0.0 1.6 0.00 0.00 0.00 42 1014.3
20210618112346 29 342 0.0 0.0 0.00 0.00 0.00 46 1014.5
20210618105903 28 24 0.0 1.6 0.00 0.00 0.00 48 1014.6
20210618102324 28 35 0.0 0.0 0.00 0.00 0.00 48 1014.8
20210618102124 28 34 0.0 0.0 0.00 0.00 0.00 50 1014.8
20210618095900 28 17 0.0 0.0 0.00 0.00 0.00 52 1014.7
20210618094329 27 232 0.0 1.6 0.00 0.00 0.00 50 1014.8
20210618091824 27 0 0.0 6.4 0.00 0.00 0.00 54 1014.9
20210618084339 26 237 0.0 0.0 0.00 0.00 0.00 54 1014.8
20210618083843 26 273 0.0 0.0 0.00 0.00 0.00 54 1014.8
20210618082336 25 314 0.0 0.0 0.00 0.00 0.00 55 1014.8
20210618080828 25 238 0.0 0.0 0.00 0.00 0.00 57 1014.9
20210618080331 25 294 0.0 1.6 0.00 0.00 0.00 57 1015.0
20210618072317 23 348 0.0 1.6 0.00 0.00 0.00 60 1014.8
20210618071631 23 347 0.0 0.0 0.00 0.00 0.00 61 1014.6
20210618070636 20 232 0.0 0.0 0.00 0.00 0.00 78 1014.7
20210618062608 19 232 0.0 0.0 0.00 0.00 0.00 78 1014.8
20210618062515 19 232 0.0 0.0 0.00 0.00 0.00 78 1014.8
20210618054838 19 232 0.0 0.0 0.00 0.00 0.00 79 1014.8
20210618051828 17 292 0.0 0.0 0.00 0.00 0.00 82 1014.6
20210618051544 17 292 0.0 0.0 0.00 0.00 0.00 81 1014.6
20210618050336 16 292 0.0 0.0 0.00 0.00 0.00 82 1014.5
20210617223928 18 63 0.0 0.0 0.00 0.00 0.00 78 1014.2
20210617223332 18 63 0.0 0.0 0.00 0.00 0.00 78 1014.2
20210617221922 18 63 0.0 0.0 0.00 0.00 0.00 77 1014.2